Temperature
13 13 13 13 13 13 14 13 13 12 11 10 10 8 7 7 7 7 7 6 6 6 5 4 4 3 2 1 0 -0 -1 -2 -3 -3 -4 -4 -4 -4 -4 -5 -5 -6 -6
13 12 12 12 12 13 13 12 11 11 10 9 8 7 6 6 6 6 6 6 5 5 4 3 3 2 1 0 -0 -1 -2 -3 -4 -5 -5 -5 -6 -6 -6 -6 -6 -7 -7
12 11 11 11 11 12 11 11 10 10 9 8 7 6 5 6 6 6 5 5 4 4 3 2 1 1 0 -0 -1 -2 -3 -4 -5 -6 -6 -7 -7 -7 -7 -7 -7 -7 -7
10 10 10 10 11 11 10 10 9 9 7 6 5 5 5 5 5 4 4 4 3 2 2 1 1 0 -0 -1 -2 -3 -4 -5 -6 -7 -7 -7 -8 -7 -8 -8 -8 -7 -7
8 8 8 9 9 9 9 8 7 6 5 4 4 4 4 4 3 3 3 2 2 1 1 0 0 -0 -1 -3 -4 -5 -6 -6 -7 -8 -8 -8 -8 -8 -8 -9 -9 -8 -7
6 6 6 6 6 6 6 5 4 3 3 3 3 3 2 2 2 2 2 1 1 1 0 0 -0 -1 -2 -4 -5 -6 -7 -7 -8 -8 -8 -9 -9 -8 -9 -9 -9 -9 -9
4 4 3 4 4 4 3 3 2 2 2 2 2 2 2 1 1 1 1 0 0 0 -0 -1 -1 -2 -4 -5 -6 -6 -7 -8 -8 -9 -9 -9 -9 -9 -9 -9 -9 -9 -9
2 1 1 2 2 2 2 2 1 1 2 1 1 1 1 0 0 -0 -0 -0 -0 -1 -1 -2 -3 -4 -4 -6 -7 -8 -8 -8 -8 -9 -9 -9 -9 -9 -9 -9 -9 -9 -9
0 -0 0 1 1 1 1 1 1 1 1 1 0 0 -0 -0 -1 -1 -1 -1 -1 -2 -2 -4 -4 -5 -5 -7 -8 -9 -9 -8 -8 -9 -9 -9 -8 -8 -9 -9 -9 -9 -10
-0 -0 0 1 1 1 1 1 1 1 0 -0 -1 -1 -1 -1 -1 -2 -2 -2 -3 -3 -3 -4 -5 -6 -8 -9 -9 -9 -9 -9 -9 -8 -8 -7 -7 -7 -7 -8 -8 -9 -10
0 0 1 1 1 1 1 0 -0 -0 -1 -1 -1 -1 -1 -2 -3 -3 -4 -4 -5 -5 -5 -6 -6 -7 -9 -9 -9 -9 -9 -9 -9 -8 -8 -7 -7 -7 -7 -7 -8 -8 -9
1 1 1 1 1 0 -0 -0 -1 -1 -1 -1 -1 -2 -2 -3 -3 -4 -4 -5 -7 -7 -7 -8 -8 -9 -9 -9 -9 -9 -9 -9 -9 -8 -8 -7 -7 -7 -7 -7 -7 -8 -8
1 1 0 -0 -0 -1 -1 -1 -1 -1 -1 -2 -2 -2 -3 -3 -4 -5 -5 -6 -7 -8 -9 -9 -10 -10 -9 -9 -8 -9 -9 -9 -8 -8 -8 -8 -7 -7 -7 -7 -7 -7 -7
1 0 -0 -0 -1 -1 -1 -1 -2 -2 -2 -2 -2 -3 -3 -4 -5 -6 -7 -8 -8 -9 -9 -9 -10 -9 -9 -9 -9 -9 -9 -9 -9 -9 -8 -8 -8 -8 -7 -8 -8 -7 -7
0 -0 -1 -1 -1 -1 -2 -2 -2 -2 -2 -2 -3 -4 -5 -5 -7 -8 -9 -9 -10 -10 -10 -10 -9 -9 -9 -8 -8 -8 -8 -8 -9 -8 -8 -8 -8 -8 -8 -8 -8 -8 -8
-0 -1 -1 -1 -1 -2 -2 -2 -2 -2 -3 -3 -4 -5 -7 -8 -9 -9 -9 -10 -10 -10 -10 -9 -9 -9 -9 -9 -9 -8 -8 -8 -8 -8 -8 -8 -8 -8 -8 -8 -8 -8 -8
-0 -0 -1 -1 -1 -2 -2 -2 -3 -4 -5 -5 -6 -7 -8 -9 -9 -9 -9 -10 -10 -10 -10 -9 -9 -9 -9 -9 -9 -9 -8 -8 -8 -8 -8 -8 -8 -8 -8 -8 -8 -8 -8
-1 -1 -1 -2 -2 -2 -3 -3 -4 -5 -5 -6 -7 -7 -8 -9 -9 -9 -10 -9 -9 -9 -10 -10 -9 -9 -9 -9 -9 -9 -8 -8 -8 -8 -8 -8 -8 -8 -8 -8 -8 -8 -8
-1 -2 -2 -2 -3 -3 -4 -4 -5 -5 -6 -7 -7 -8 -9 -9 -9 -10 -10 -10 -10 -10 -10 -9 -9 -9 -9 -9 -9 -8 -8 -8 -8 -8 -8 -8 -8 -8 -8 -8 -8 -8 -8
-2 -2 -3 -3 -3 -4 -4 -5 -6 -6 -7 -8 -8 -9 -9 -9 -9 -10 -10 -10 -10 -10 -10 -9 -9 -9 -9 -9 -8 -8 -8 -8 -8 -8 -8 -7 -7 -8 -8 -8 -8 -8 -8
-3 -3 -3 -4 -4 -4 -5 -6 -7 -7 -8 -9 -9 -9 -10 -10 -10 -10 -10 -10 -10 -10 -10 -9 -9 -9 -9 -9 -8 -8 -8 -8 -8 -8 -7 -7 -7 -7 -7 -7 -8 -8 -8
-3 -3 -3 -4 -4 -5 -6 -7 -7 -8 -9 -9 -9 -10 -10 -10 -10 -10 -10 -10 -10 -10 -10 -10 -9 -9 -9 -8 -8 -8 -8 -8 -8 -8 -7 -7 -7 -7 -7 -7 -8 -8 -8
-3 -3 -4 -4 -5 -6 -7 -8 -8 -9 -9 -10 -10 -10 -10 -10 -10 -10 -10 -10 -10 -10 -10 -10 -9 -9 -8 -8 -8 -8 -8 -8 -8 -8 -7 -7 -7 -7 -7 -7 -8 -8 -8
-4 -4 -4 -5 -6 -7 -8 -8 -9 -9 -10 -10 -10 -10 -10 -10 -10 -10 -10 -10 -10 -10 -10 -9 -9 -9 -8 -8 -8 -8 -8 -8 -8 -8 -7 -7 -7 -7 -7 -7 -7 -8 -8
-4 -4 -5 -6 -7 -8 -8 -9 -9 -10 -10 -10 -10 -10 -10 -10 -10 -10 -10 -10 -9 -9 -9 -9 -9 -8 -8 -8 -8 -8 -8 -8 -8 -8 -7 -7 -7 -7 -7 -7 -8 -8 -8
-4 -5 -6 -7 -8 -8 -9 -9 -10 -10 -10 -11 -11 -11 -10 -10 -10 -10 -10 -9 -9 -9 -8 -8 -8 -8 -8 -8 -8 -8 -8 -8 -8 -8 -7 -7 -7 -7 -7 -7 -8 -8 -8
Wind_Speed
7 9 11 12 12 14 14 15 14 13 16 16 15 14 13 12 11 9 7 8 7 5 4 4 4 4 3 3 3 3 4 4 6 5 4 4 5 8 13 17 18 18 18
7 9 12 13 14 14 14 14 15 16 15 15 15 13 12 11 10 10 9 7 6 5 3 3 3 3 4 4 4 4 4 5 5 7 4 4 6 8 8 9 15 17 17
7 10 12 13 14 14 14 15 15 16 15 14 14 13 11 10 9 8 8 7 6 4 3 1 2 3 4 4 5 5 5 5 5 6 6 4 5 7 8 10 10 11 17
6 9 11 12 13 14 14 15 15 15 15 14 13 12 11 10 9 8 8 7 6 5 3 1 2 4 5 5 5 6 6 5 5 5 6 6 6 7 7 8 11 7 10
7 8 9 11 13 15 15 15 15 14 15 14 14 12 11 9 8 8 7 6 5 4 3 3 3 4 6 5 5 5 5 4 5 5 6 7 8 7 8 7 12 11 10
11 11 11 13 15 16 16 16 16 15 15 14 13 12 9 8 11 11 7 5 4 3 3 4 5 5 7 8 10 11 11 7 5 5 7 10 11 10 9 11 12 14 10
13 13 13 15 17 17 18 18 16 15 14 13 11 10 9 9 10 9 8 4 3 3 3 3 3 5 7 5 9 12 11 14 15 11 11 11 12 11 11 12 12 13 15
14 14 14 16 18 17 17 16 14 12 11 10 9 8 7 7 8 8 8 5 3 3 2 2 3 4 7 8 6 5 5 7 12 10 10 12 12 11 11 12 13 12 12
14 14 14 15 16 16 15 13 11 11 10 8 7 7 6 6 7 6 7 3 1 1 2 3 5 5 12 14 8 7 8 9 15 19 20 19 22 23 18 10 8 11 15
13 13 13 13 14 14 13 11 9 9 8 7 6 5 5 4 5 4 5 3 1 2 3 4 8 10 13 14 8 8 9 9 9 10 11 14 14 16 19 9 7 10 12
12 12 13 13 13 12 10 8 8 8 7 6 6 4 2 2 1 1 1 2 0 2 3 4 5 13 15 16 14 7 11 12 6 7 9 10 9 8 7 6 6 9 12
12 13 12 11 10 9 9 8 7 7 7 6 5 4 3 3 3 4 6 6 6 2 4 4 7 15 16 16 12 13 17 14 6 8 9 10 9 10 10 10 10 10 13
12 12 11 10 9 8 8 8 6 6 5 4 4 3 2 3 5 7 8 9 11 5 5 11 14 15 14 9 13 15 12 7 7 8 9 10 8 9 10 10 11 11 13
11 10 9 9 8 7 6 6 5 4 4 3 3 2 2 3 4 4 4 5 8 8 7 9 12 11 10 11 11 9 6 7 8 8 10 11 11 9 10 9 11 12 12
10 9 8 7 7 6 5 4 4 3 4 3 2 1 0 2 5 8 6 4 5 6 5 2 3 5 5 6 6 6 6 7 7 8 10 11 12 12 12 9 9 11 11
9 7 6 5 5 5 4 4 6 4 6 4 2 2 3 5 8 10 12 13 13 12 6 4 5 5 6 8 8 9 8 8 8 9 10 10 11 12 12 11 10 11 13
8 7 5 5 4 4 4 4 3 4 6 6 6 6 5 6 9 11 12 11 10 9 4 4 5 5 6 7 7 8 9 8 8 9 9 10 10 11 11 12 12 12 12
7 7 6 5 4 4 3 3 2 2 2 3 5 7 8 8 9 10 10 8 5 5 4 5 5 6 6 7 7 8 9 9 9 9 9 10 10 10 11 12 12 13 14
6 5 5 4 4 3 3 3 2 2 1 2 3 4 7 8 8 9 8 4 5 5 5 5 6 6 7 7 7 8 9 9 10 10 10 10 10 10 11 12 13 18 16
5 8 6 4 3 3 3 2 2 1 1 2 3 4 4 3 3 4 4 4 4 5 6 6 7 6 7 7 8 8 9 9 10 9 10 10 10 10 12 14 14 14 14
4 5 7 5 3 3 2 1 0 1 2 3 3 5 8 3 4 5 5 5 5 6 6 7 7 7 7 7 7 8 10 10 9 10 10 11 11 12 12 13 14 14 14
4 4 3 3 2 1 1 0 1 2 3 3 3 4 8 4 4 5 5 6 6 6 6 7 7 7 7 8 8 9 10 10 10 10 11 12 12 13 13 12 13 13 13
5 4 3 3 2 2 2 1 2 2 3 4 4 4 4 4 4 5 6 6 7 7 7 6 8 8 7 9 9 8 10 11 11 12 13 14 13 12 11 12 14 15 14
4 4 3 2 1 1 1 2 2 3 3 4 4 4 4 5 6 7 6 6 7 7 8 8 8 10 12 12 13 13 13 15 16 13 16 15 14 12 12 13 14 15 14
4 3 3 2 1 1 2 2 3 3 4 4 5 5 5 6 6 6 6 7 8 8 9 10 10 10 13 16 17 16 19 23 24 19 14 13 13 13 13 13 13 14 14
4 3 2 1 0 1 2 3 4 4 4 5 5 5 6 6 7 7 7 7 7 8 9 10 12 15 18 17 18 20 23 25 26 26 17 11 12 12 13 12 14 14 14
Wind_Direction
207 189 174 168 163 163 166 164 158 152 152 153 152 151 150 148 146 142 141 149 151 153 155 171 192 184 187 197 199 203 210 204 248 262 248 269 280 286 300 299 299 295 293
199 175 167 160 158 161 161 157 152 150 150 149 148 148 148 146 144 143 145 148 147 151 156 170 207 206 213 215 215 225 230 224 234 272 271 270 271 280 283 287 299 297 293
180 163 157 157 157 155 151 148 146 143 141 142 142 143 140 135 128 125 124 120 114 111 113 165 236 226 236 236 234 237 241 247 239 265 283 272 272 281 287 286 285 283 288
153 150 150 151 145 140 138 137 136 135 135 133 129 123 119 114 111 110 108 102 95 85 71 44 277 241 240 243 242 243 246 256 263 269 282 287 282 281 281 292 299 282 285
105 113 118 119 120 121 121 121 120 121 120 116 112 106 104 104 107 106 100 95 87 67 33 349 303 277 267 265 258 245 241 250 265 273 287 297 298 301 299 296 301 301 289
88 93 101 108 110 109 108 107 106 105 105 104 104 106 101 102 108 103 100 91 79 51 359 335 314 301 302 313 307 301 296 290 292 285 290 296 297 294 293 296 300 303 300
89 94 99 104 102 102 102 100 99 100 99 98 98 99 100 107 111 110 107 104 79 46 13 358 353 342 347 311 301 302 301 301 300 298 294 289 290 290 289 291 291 292 295
92 95 97 99 99 99 99 98 98 99 99 100 102 108 116 130 131 125 112 97 82 56 37 17 323 314 315 304 281 280 277 282 286 285 272 273 276 277 275 288 294 295 289
94 95 96 99 101 101 100 99 100 102 101 104 117 134 143 148 146 135 128 124 106 346 313 319 329 317 313 312 310 298 288 282 292 293 292 292 295 299 301 299 294 298 298
95 95 94 96 98 99 101 102 104 109 116 121 123 134 149 169 173 152 143 164 213 297 310 316 327 321 312 311 305 292 292 287 284 290 295 296 293 292 297 288 277 289 295
96 94 92 92 96 100 102 107 113 112 107 103 102 100 126 171 178 346 17 155 253 323 318 311 304 315 313 313 314 302 296 305 308 308 304 299 296 292 289 277 263 269 283
96 95 94 95 99 104 105 100 97 100 99 101 104 89 58 31 19 3 3 356 340 322 297 287 291 310 316 321 320 310 312 322 322 309 303 301 301 301 298 293 283 271 265
97 96 95 91 89 93 97 98 91 91 100 106 109 99 58 25 9 9 352 337 328 320 289 303 309 317 325 326 315 316 324 321 307 304 303 300 294 289 293 295 292 285 278
98 93 91 91 86 80 83 91 98 105 110 114 109 91 35 358 335 310 293 300 310 304 293 300 318 328 328 320 317 316 309 299 302 301 301 300 301 298 297 297 300 305 302
94 92 88 87 91 85 82 94 114 129 134 122 119 120 41 305 299 317 323 299 289 284 313 352 347 327 322 316 312 310 308 308 306 301 301 302 302 302 301 302 296 300 296
105 98 97 98 98 99 99 81 76 85 77 82 165 220 252 286 317 332 327 324 326 329 346 334 319 316 314 317 317 314 311 305 302 303 301 299 300 301 302 301 298 298 296
113 111 105 102 98 93 87 86 63 35 41 35 18 355 343 342 342 335 330 338 342 344 335 308 302 302 303 302 301 302 302 301 300 299 297 297 298 299 300 301 303 301 298
99 104 101 92 92 91 94 99 101 78 20 348 354 354 347 342 340 338 340 347 335 336 306 296 296 298 299 299 301 301 302 304 303 301 298 296 296 298 300 300 299 298 300
101 99 98 100 102 105 105 102 90 72 33 331 319 332 340 337 343 344 349 329 308 310 308 300 295 294 294 295 296 296 296 297 297 298 298 297 298 299 298 297 298 299 301
112 126 122 117 112 104 94 87 77 42 344 321 315 308 308 328 334 328 326 306 301 303 304 302 299 293 293 293 294 295 297 297 298 297 297 297 297 296 295 296 297 299 300
113 123 123 113 108 106 98 85 40 305 300 300 295 306 327 350 324 312 311 305 300 302 301 302 299 297 292 289 290 291 293 294 293 293 295 295 297 297 295 294 295 297 298
123 119 119 117 109 102 102 48 324 311 307 306 299 309 331 330 305 301 300 302 301 297 295 296 294 290 288 291 292 293 293 293 293 294 294 296 296 295 295 297 300 304 308
124 120 113 108 98 56 60 6 330 314 306 302 302 306 313 308 304 299 299 303 304 300 296 292 291 292 288 288 285 281 283 286 288 290 293 295 296 297 300 304 308 311 313
122 121 118 110 92 52 346 323 317 312 308 303 303 303 301 300 300 300 298 296 297 293 293 292 288 289 291 298 298 291 285 284 286 286 286 292 302 311 313 311 311 311 314
120 116 113 106 54 336 316 310 306 304 306 308 308 307 303 300 296 293 292 293 295 295 294 297 294 294 297 300 300 298 297 301 304 306 304 308 313 314 313 312 313 316 317
124 118 109 92 317 304 301 299 298 299 297 297 293 291 291 290 291 291 294 294 297 299 299 300 297 299 302 303 301 303 307 310 313 315 317 313 315 315 317 316 316 318 317
Height
1414 1415 1416 1419 1423 1428 1433 1438 1442 1447 1451 1456 1461 1466 1471 1476 1481 1485 1487 1489 1490 1490 1490 1489 1488 1487 1486 1485 1483 1481 1479 1476 1470 1466 1465 1463 1459 1456 1452 1448 1444 1440 1437
1408 1409 1410 1413 1417 1422 1427 1432 1437 1442 1447 1452 1457 1462 1468 1473 1477 1481 1484 1485 1486 1486 1485 1485 1484 1482 1481 1480 1477 1475 1473 1470 1465 1460 1457 1455 1452 1449 1444 1441 1437 1433 1429
1402 1403 1405 1408 1412 1417 1422 1428 1433 1437 1442 1447 1453 1460 1466 1471 1475 1478 1480 1481 1481 1481 1481 1480 1479 1477 1476 1474 1471 1469 1466 1463 1459 1455 1450 1448 1445 1442 1437 1433 1429 1425 1421
1397 1398 1400 1403 1407 1413 1418 1424 1429 1434 1439 1444 1451 1458 1464 1469 1473 1475 1477 1477 1477 1477 1476 1475 1474 1472 1470 1468 1465 1463 1460 1457 1454 1450 1445 1441 1438 1435 1431 1425 1419 1416 1412
1394 1395 1397 1400 1404 1410 1415 1421 1426 1432 1437 1444 1451 1458 1464 1468 1471 1473 1474 1474 1473 1472 1471 1470 1469 1467 1464 1462 1459 1457 1454 1451 1448 1444 1440 1435 1431 1428 1424 1419 1413 1408 1403
1392 1394 1396 1399 1402 1408 1413 1419 1425 1431 1438 1446 1453 1459 1463 1467 1469 1470 1470 1470 1469 1468 1467 1465 1463 1461 1458 1456 1454 1452 1450 1447 1443 1439 1435 1431 1426 1423 1418 1414 1409 1402 1395
1393 1394 1397 1400 1404 1409 1414 1421 1428 1435 1442 1448 1455 1460 1463 1465 1466 1466 1466 1466 1465 1463 1462 1459 1457 1454 1452 1449 1447 1445 1443 1441 1438 1435 1430 1425 1421 1417 1413 1408 1403 1398 1392
1395 1397 1401 1404 1408 1413 1420 1426 1433 1439 1445 1450 1455 1459 1461 1462 1463 1464 1463 1462 1461 1458 1456 1453 1451 1448 1446 1444 1441 1439 1436 1434 1432 1428 1424 1419 1416 1412 1408 1404 1398 1391 1384
1400 1403 1407 1411 1415 1420 1426 1432 1437 1442 1446 1451 1455 1458 1460 1461 1461 1461 1460 1458 1456 1454 1451 1448 1445 1442 1441 1438 1437 1434 1430 1428 1425 1422 1418 1415 1411 1407 1403 1398 1392 1385 1376
1408 1411 1415 1418 1422 1426 1431 1436 1440 1444 1448 1452 1455 1458 1459 1460 1459 1457 1455 1453 1451 1448 1446 1444 1441 1438 1436 1435 1432 1429 1425 1421 1418 1414 1411 1408 1404 1401 1397 1393 1387 1380 1372
1415 1418 1421 1424 1428 1432 1436 1440 1444 1447 1450 1453 1456 1457 1458 1457 1455 1453 1451 1448 1446 1443 1441 1439 1437 1434 1432 1430 1427 1423 1419 1417 1412 1408 1404 1400 1397 1394 1390 1387 1382 1376 1368
1421 1424 1427 1431 1434 1438 1441 1444 1447 1450 1452 1454 1455 1455 1455 1453 1452 1450 1448 1445 1442 1440 1437 1435 1432 1430 1428 1425 1421 1418 1415 1411 1407 1403 1399 1395 1391 1387 1383 1379 1375 1370 1364
1428 1431 1433 1436 1439 1443 1446 1448 1450 1452 1453 1454 1454 1453 1452 1450 1448 1446 1444 1441 1439 1436 1433 1430 1428 1426 1422 1419 1416 1413 1410 1406 1403 1398 1394 1390 1386 1381 1377 1372 1366 1361 1355
1434 1437 1439 1441 1444 1446 1448 1450 1451 1452 1453 1452 1451 1450 1448 1446 1444 1442 1440 1437 1435 1432 1429 1426 1424 1421 1418 1415 1412 1409 1406 1403 1399 1394 1390 1385 1380 1376 1371 1365 1359 1352 1344
1440 1441 1444 1446 1447 1449 1450 1451 1452 1452 1451 1450 1448 1447 1445 1443 1441 1440 1437 1434 1431 1429 1426 1422 1419 1416 1413 1411 1408 1405 1402 1399 1395 1391 1386 1380 1375 1370 1365 1360 1353 1346 1339
1444 1445 1447 1448 1449 1450 1451 1451 1451 1450 1449 1447 1446 1444 1442 1441 1439 1436 1434 1431 1428 1425 1422 1418 1416 1413 1410 1407 1404 1401 1398 1395 1391 1386 1381 1377 1371 1365 1359 1353 1347 1340 1333
1448 1448 1449 1450 1451 1451 1451 1450 1449 1448 1447 1445 1443 1442 1440 1438 1435 1432 1430 1427 1424 1421 1418 1415 1412 1410 1407 1404 1401 1397 1394 1390 1386 1382 1377 1372 1367 1361 1354 1347 1341 1335 1327
1450 1451 1451 1451 1451 1451 1450 1449 1448 1446 1445 1443 1441 1439 1437 1435 1432 1429 1427 1424 1421 1418 1415 1412 1409 1407 1404 1401 1397 1394 1390 1386 1382 1378 1374 1369 1363 1356 1350 1343 1337 1330 1323
1451 1451 1451 1451 1451 1450 1449 1447 1446 1444 1442 1440 1438 1436 1434 1432 1429 1427 1424 1421 1418 1415 1412 1410 1407 1404 1401 1398 1395 1391 1387 1383 1379 1374 1370 1365 1359 1353 1346 1339 1332 1326 1319
1451 1451 1451 1451 1450 1449 1447 1446 1444 1442 1440 1438 1435 1433 1431 1428 1426 1423 1421 1418 1415 1412 1409 1407 1404 1401 1398 1395 1392 1388 1384 1380 1376 1371 1367 1361 1356 1349 1342 1336 1329 1322 1315
1451 1451 1450 1449 1448 1447 1445 1443 1441 1439 1437 1435 1432 1430 1428 1425 1423 1420 1418 1415 1412 1410 1407 1404 1402 1399 1396 1392 1389 1385 1381 1377 1373 1368 1363 1358 1352 1346 1339 1332 1326 1319 1312
1450 1450 1449 1448 1446 1444 1442 1440 1438 1436 1434 1432 1429 1427 1425 1422 1420 1417 1415 1412 1410 1407 1405 1402 1399 1396 1393 1389 1385 1381 1377 1373 1369 1365 1359 1354 1348 1342 1336 1329 1323 1317 1310
1449 1448 1447 1445 1443 1441 1439 1437 1435 1433 1430 1428 1426 1423 1421 1419 1416 1414 1412 1410 1407 1405 1402 1400 1397 1394 1391 1387 1383 1379 1374 1370 1366 1362 1356 1350 1345 1339 1334 1327 1321 1314 1307
1447 1446 1444 1442 1440 1438 1436 1434 1432 1429 1427 1424 1422 1420 1418 1415 1413 1411 1409 1406 1404 1402 1400 1397 1394 1391 1387 1384 1380 1376 1372 1368 1363 1359 1354 1349 1344 1338 1332 1325 1318 1311 1304
1445 1443 1441 1439 1437 1435 1433 1430 1428 1426 1423 1421 1419 1416 1414 1412 1410 1408 1406 1403 1401 1399 1397 1394 1391 1387 1384 1380 1376 1372 1369 1365 1361 1357 1353 1348 1342 1336 1329 1323 1316 1309 1302
1442 1440 1438 1436 1434 1432 1429 1427 1425 1422 1420 1418 1415 1413 1411 1409 1407 1404 1402 1400 1398 1395 1393 1391 1388 1384 1381 1377 1373 1369 1365 1361 1358 1354 1350 1345 1339 1333 1326 1320 1313 1307 1300